Theta_e
296 296 296 295 295 295 294 294 294 294 294 294 294 292 291 291 290 288 288 287 287 286 285 284 284 283 282 281 281 280 280 280 278 279 279 279 279 279 279 279 279 279 280
296 295 295 294 294 294 294 294 294 294 292 292 292 292 290 289 289 288 287 286 286 285 285 284 283 282 281 281 280 280 279 279 278 277 277 277 277 277 277 277 278 277 277
296 296 295 294 293 294 293 293 293 293 292 291 291 290 290 289 288 288 287 286 286 285 285 284 283 281 281 280 279 279 278 278 277 276 276 276 276 277 277 277 278 278 278
293 294 295 294 294 294 293 293 292 291 291 290 290 290 289 289 287 286 285 285 284 284 284 283 283 282 281 280 279 279 278 277 276 276 275 276 276 277 278 277 277 277 277
290 291 292 293 294 293 293 292 291 291 290 290 289 288 288 287 286 285 284 284 283 282 282 283 282 282 281 280 279 278 277 277 276 276 276 276 277 278 277 277 277 276 276
290 290 290 292 292 292 292 292 291 290 289 288 288 288 287 286 286 286 285 283 282 282 281 281 281 280 279 278 278 278 278 277 277 276 277 277 277 277 277 276 276 277 277
289 289 288 289 290 291 291 290 290 289 288 287 286 286 286 286 285 285 283 283 282 281 281 280 279 279 278 278 279 280 280 280 280 279 278 278 277 277 277 277 277 277 278
288 288 287 286 288 289 290 289 288 287 287 286 285 284 284 285 284 285 283 282 281 281 281 281 280 278 277 277 278 279 279 278 278 278 277 277 277 277 278 278 277 276 274
288 286 285 285 285 287 287 287 287 286 285 285 284 283 283 282 283 285 283 279 279 278 279 279 279 278 278 278 277 276 276 276 277 278 278 278 278 277 277 275 274 273 272
288 286 284 286 285 284 285 285 285 284 284 283 283 282 282 281 283 285 283 279 278 278 277 278 278 278 278 278 276 276 276 276 276 276 275 275 275 275 274 273 272 272 271
282 283 284 285 287 284 283 283 283 283 282 282 281 280 281 280 283 285 283 279 278 278 277 277 277 278 278 279 279 277 277 277 276 276 275 275 274 273 273 273 272 271 271
279 282 284 283 284 285 282 281 281 281 280 279 279 278 279 279 281 285 284 280 279 278 277 277 277 278 278 279 279 278 278 277 276 275 274 272 272 272 272 271 271 271 271
278 277 278 281 282 282 282 281 279 279 279 277 277 277 277 278 280 284 285 281 280 277 277 277 277 279 279 279 279 278 276 275 274 272 271 271 271 270 270 270 270 270 270
274 274 275 277 281 281 280 280 279 278 279 278 278 278 276 277 279 283 284 282 280 277 277 277 277 278 278 277 276 275 273 272 271 271 270 270 270 270 269 269 269 269 269
271 271 272 274 277 281 280 280 279 280 280 279 279 278 277 276 277 281 283 281 280 276 277 277 277 275 273 272 271 271 270 270 270 270 269 269 268 269 269 269 268 268 268
268 269 270 272 274 278 280 280 280 281 280 280 280 279 277 278 278 280 283 282 280 278 275 274 272 271 271 270 269 269 269 269 269 269 268 268 268 268 267 268 267 267 268
266 267 267 269 271 274 278 279 279 279 281 282 282 281 280 278 279 280 282 282 281 277 274 273 272 271 270 270 269 269 268 268 268 268 268 267 267 267 266 266 267 267 268
264 265 266 267 269 272 274 278 278 278 278 281 281 282 281 279 279 279 281 282 281 276 272 272 270 270 269 269 269 268 268 268 268 267 267 267 267 265 265 266 266 267 267
263 264 265 266 268 270 271 276 277 277 277 279 278 281 281 280 279 280 281 281 280 270 271 270 270 270 269 269 268 268 268 268 267 267 267 267 266 265 265 265 266 266 267
263 263 264 265 267 268 270 276 276 276 276 277 278 279 279 279 279 280 281 280 275 271 270 268 269 269 268 268 268 267 267 267 267 267 267 266 266 266 265 265 266 266 268
264 264 265 266 267 268 271 275 275 275 275 276 277 278 278 278 279 280 279 273 271 269 269 270 269 268 268 267 267 267 267 267 267 267 266 266 266 266 267 265 265 267 267
265 265 265 266 267 268 272 274 274 274 275 276 277 278 279 278 276 270 269 269 269 269 271 270 268 268 268 267 267 267 267 267 267 267 267 267 267 267 267 265 266 267 266
267 267 267 267 268 270 273 273 274 274 275 275 276 277 275 270 268 267 267 269 270 270 269 268 267 267 266 267 267 267 267 268 267 267 267 267 267 268 267 266 266 266 265
269 268 268 269 271 272 272 273 273 273 273 273 270 268 267 266 266 266 268 268 268 267 267 266 266 266 266 266 266 267 267 267 268 268 267 268 268 268 267 267 267 265 264
268 269 270 270 271 270 270 269 269 270 269 267 266 265 265 265 265 266 267 267 267 266 265 265 265 265 266 266 266 267 267 267 268 268 268 268 269 269 268 268 267 265 264
266 266 266 267 267 267 267 267 267 266 265 264 264 264 264 264 265 266 266 266 265 264 265 265 264 265 265 265 266 267 267 267 268 268 268 269 269 269 269 268 266 265 263
Wind_Speed
27 31 35 38 41 41 42 42 44 43 45 46 46 48 52 53 52 49 47 44 41 39 35 32 28 24 23 21 19 18 18 17 10 7 13 15 21 24 27 27 27 28 30
25 28 34 35 37 39 42 46 45 44 43 44 45 46 50 52 54 53 50 48 46 44 40 35 32 27 24 22 21 21 20 20 16 8 8 15 17 21 22 22 22 21 20
26 28 32 35 34 40 41 42 44 44 43 44 44 47 49 51 52 54 53 50 49 46 43 40 36 31 28 26 24 22 20 18 17 15 11 13 17 18 19 19 18 19 19
31 27 32 33 38 40 40 40 41 43 43 44 45 46 47 49 50 50 50 47 46 46 43 40 36 33 31 28 26 23 20 19 18 15 14 15 14 16 15 17 17 18 22
36 32 29 33 35 36 36 36 37 39 42 43 42 42 43 45 47 46 46 46 44 42 42 39 36 33 31 28 27 26 22 20 15 12 13 9 10 11 13 18 19 22 24
31 32 36 34 34 35 37 36 37 39 40 40 42 44 44 46 48 49 48 44 44 43 43 39 36 33 30 27 25 24 21 19 17 16 14 9 12 13 15 18 20 21 7
28 28 29 29 30 32 33 34 37 36 35 38 37 41 45 46 43 44 44 46 45 44 43 41 37 35 32 28 23 20 18 17 17 14 14 15 12 17 19 18 19 21 22
27 29 33 33 30 29 28 32 30 30 33 33 33 36 38 42 38 42 43 43 43 44 45 45 42 39 36 34 30 27 26 23 21 18 16 14 14 14 17 20 23 25 28
24 28 32 34 29 28 25 26 27 25 28 31 30 34 35 31 35 40 40 34 35 36 41 41 40 37 34 28 30 28 24 21 15 13 13 13 14 14 14 21 23 19 16
29 32 34 35 32 26 27 25 22 22 23 24 26 31 30 29 33 39 38 29 31 31 32 33 37 37 32 30 29 27 23 20 14 12 14 12 11 16 17 17 17 18 15
37 36 33 35 32 24 22 23 21 22 19 21 21 23 28 33 38 43 41 34 34 31 31 30 32 29 30 30 27 26 23 15 12 12 12 12 14 14 17 18 16 17 18
33 32 30 28 32 27 18 16 19 20 18 16 17 19 25 30 34 41 41 30 30 33 31 31 32 30 28 27 25 20 17 15 14 13 11 9 12 13 16 19 20 22 25
32 33 32 31 27 28 23 17 13 17 14 14 14 15 17 26 30 35 40 31 27 24 25 29 32 32 30 25 24 20 19 18 14 9 6 8 10 13 16 20 25 26 29
32 33 32 30 29 24 24 20 17 18 15 16 17 17 17 20 28 35 38 34 30 24 23 22 25 27 25 26 21 19 17 15 12 7 5 7 11 13 17 20 21 24 27
33 33 31 29 29 25 24 22 23 26 25 21 21 21 23 24 34 34 35 34 34 32 34 33 25 23 20 21 21 18 13 10 7 4 3 7 11 13 16 17 19 22 24
33 30 28 27 27 26 22 20 26 27 23 29 25 27 27 24 27 38 39 33 34 36 31 28 25 23 19 18 18 15 12 9 6 3 2 7 11 14 17 18 18 20 24
31 32 30 29 26 24 23 18 12 19 27 28 28 26 27 27 27 36 36 36 34 37 27 27 23 22 21 19 20 17 12 9 5 2 3 8 12 17 18 17 18 20 24
32 32 31 29 27 25 25 23 18 15 8 18 26 27 28 24 28 35 39 37 33 33 27 27 25 25 24 26 23 19 15 10 6 3 4 9 13 17 18 18 19 22 24
31 29 28 27 27 28 28 25 21 18 16 16 15 23 26 26 27 36 44 39 34 28 29 27 31 31 29 26 22 17 13 9 5 3 5 11 15 15 18 20 21 24 26
32 32 31 28 27 26 26 23 18 17 17 15 16 20 21 24 24 32 38 30 25 25 26 28 31 32 29 26 21 16 11 7 4 4 6 12 15 16 19 21 23 23 24
30 29 28 26 25 25 25 19 17 16 15 15 16 20 25 27 23 26 24 23 25 26 29 32 32 30 26 22 18 15 12 8 5 4 9 13 15 18 22 24 24 23 28
31 29 26 23 23 22 23 18 16 15 15 14 14 18 28 26 21 22 22 24 27 29 31 32 30 25 21 19 17 13 9 6 3 5 10 13 15 19 23 24 22 23 26
29 27 22 21 21 22 16 15 15 15 14 15 15 19 16 22 22 24 29 30 27 25 23 23 22 21 18 15 12 9 6 2 4 8 12 14 17 22 24 22 21 24 26
25 14 15 16 17 13 11 11 10 12 15 16 16 19 20 22 26 28 29 28 26 24 22 20 18 17 15 12 9 7 3 3 6 9 12 14 19 23 24 21 25 26 28
17 10 5 6 7 9 11 12 13 13 15 19 19 21 23 25 29 29 29 28 25 22 19 17 15 12 11 10 8 5 4 5 8 10 11 15 21 22 24 25 27 29 29
18 17 16 15 14 13 13 13 14 16 17 18 19 21 23 27 30 31 28 25 22 18 15 12 10 9 8 7 6 5 5 7 10 11 13 19 21 22 25 24 26 30 29
Wind_Direction
245 236 234 233 229 224 227 226 224 223 219 215 213 212 215 215 215 214 214 214 212 213 213 212 212 210 206 206 205 209 213 211 203 256 255 271 288 305 314 322 326 329 332
278 264 254 242 234 229 227 227 228 225 223 222 215 211 212 213 214 213 212 213 212 211 212 208 211 206 208 208 208 212 215 219 222 222 258 265 278 295 304 310 317 307 301
308 277 258 251 242 236 232 229 228 226 225 223 219 215 211 212 211 213 213 213 212 214 212 209 208 205 206 206 209 214 221 225 230 229 244 259 277 290 308 308 308 309 309
337 304 276 257 249 242 237 234 231 229 223 222 222 218 217 215 213 210 208 209 212 213 213 211 210 208 211 210 211 215 220 229 234 241 254 254 276 303 305 308 314 320 313
334 329 296 280 271 257 246 238 233 228 227 224 221 220 219 218 213 207 206 205 205 206 210 209 211 211 215 214 212 214 216 223 231 238 244 264 290 307 313 317 314 320 320
332 329 323 303 285 266 254 242 232 229 223 220 219 218 214 216 215 214 208 200 203 202 202 205 208 208 207 207 209 217 220 219 228 233 257 262 289 300 308 309 317 327 331
335 335 335 322 296 276 259 241 228 221 218 219 214 212 212 214 212 204 202 201 198 199 200 199 201 205 203 201 197 198 208 217 236 249 255 266 276 290 299 303 309 309 303
329 340 344 339 321 291 263 240 229 217 217 214 213 217 212 211 208 202 195 197 195 198 200 202 202 202 203 201 195 199 208 213 222 231 245 271 286 302 296 301 303 303 299
326 332 337 341 331 307 276 255 242 224 213 212 212 213 213 208 205 198 192 193 188 187 196 201 201 199 197 193 198 201 208 218 224 233 250 260 270 284 295 304 303 312 309
323 326 327 332 335 321 295 273 256 240 231 213 211 214 208 203 199 197 191 182 181 179 185 193 201 203 190 186 197 198 201 213 221 237 251 260 280 306 312 300 302 283 290
318 314 316 322 322 320 307 289 254 236 228 218 203 205 205 204 204 194 192 187 180 174 179 182 189 189 187 192 198 202 209 212 213 230 253 284 304 316 315 316 307 280 275
311 312 312 308 313 308 294 279 260 233 207 205 195 188 199 202 202 196 193 193 184 178 181 181 187 188 189 193 197 201 196 201 210 226 255 287 303 316 319 314 296 285 274
310 308 308 307 300 300 277 261 231 232 207 188 191 196 188 192 198 197 197 189 184 179 182 183 183 184 188 193 195 195 195 199 211 214 242 282 297 311 315 312 311 302 291
303 304 307 307 298 279 266 247 230 212 217 214 197 204 195 194 189 190 194 183 185 172 166 177 179 184 185 187 178 186 194 195 198 208 239 289 305 316 321 318 297 301 297
300 299 299 297 291 278 257 245 230 235 217 219 217 207 193 194 199 195 190 179 177 169 158 162 175 173 165 177 187 186 186 187 189 204 266 297 300 315 313 310 300 298 291
292 291 289 290 287 285 266 259 248 243 236 230 226 215 214 212 199 195 194 185 177 169 164 161 160 167 181 179 171 176 182 177 177 196 279 304 307 310 301 305 304 296 290
278 281 284 284 281 280 275 251 258 253 238 240 235 224 220 209 201 199 197 190 180 170 174 165 167 170 171 170 180 176 172 167 185 234 302 313 310 304 303 304 303 295 294
275 274 275 275 276 277 274 263 243 241 233 229 230 229 219 211 203 194 194 185 181 180 173 165 163 168 174 176 179 174 171 171 181 225 299 308 304 300 304 301 298 296 297
276 274 272 271 271 272 275 269 233 234 230 232 207 220 216 210 204 199 192 190 182 167 169 169 171 176 181 179 176 175 175 170 197 247 295 300 304 303 307 299 293 295 295
276 271 267 264 264 266 266 252 227 218 221 215 208 209 184 189 201 198 195 190 176 171 168 167 171 178 179 176 172 175 172 180 204 269 299 295 306 309 304 299 294 295 308
273 271 265 258 258 261 267 238 220 213 214 210 209 201 184 183 194 192 185 163 162 167 167 173 173 175 175 171 169 176 180 187 211 279 293 300 310 308 316 308 292 301 310
271 264 257 253 250 255 254 220 214 210 209 206 200 190 188 186 182 144 140 150 164 173 176 173 171 173 172 171 175 179 185 201 238 279 296 307 312 313 311 300 293 308 314
274 258 241 242 242 252 219 206 204 204 200 189 178 178 170 137 137 142 153 161 163 160 162 166 165 168 171 173 177 182 189 210 280 299 306 309 310 312 308 298 301 310 315
302 229 227 233 242 209 190 182 180 170 149 153 123 118 124 130 138 148 149 146 145 150 158 163 169 175 177 180 187 196 210 264 296 309 310 306 307 311 310 299 312 310 312
5 40 91 125 122 113 107 102 114 114 102 111 116 121 127 134 138 139 139 143 149 157 162 168 175 181 189 196 201 211 243 285 304 308 310 309 311 308 307 315 317 315 312
23 39 48 58 64 74 84 90 88 96 101 108 117 124 131 134 137 140 143 149 153 157 160 171 181 191 202 210 216 230 260 294 302 308 313 308 306 311 320 313 315 319 314